Location: Dziadowski
(50.3833°N, 20.0333°E)
Time: 00:37:06
(UTC+00:00)

Dummy Sat-02 - Pass Details

Date: 18 January 2026
Orbit: 474 x 485 km, 86.3° (Epoch: 6 February)

Event Time Altitude Azimuth Distance (km) Brightness Sun altitude
Rises 04:40:34 0° 191° (S) 2,531 8.2 -17.2°
Reaches altitude 10° 04:42:40 10° 194° (SSW) 1,654 7.2 -16.9°
Maximum altitude 04:46:14 61° 276° (W) 550 4.5 -16.3°
Drops below altitude 10° 04:49:49 10° 358° (N) 1,663 7.1 -15.7°
Sets 04:51:56 0° 2° (N) 2,545 8.1 -15.4°
